Observer details:
094 Crimea-Simeis.  Observer A. Novichonok.  1.0-m f/13 reflector + CCD.
160 Castelmartini.  Observers M. Jaeger, E. Prosperi, S. Prosperi,
    W. Vollmann.  Measurer E. Prosperi.  0.35-m f/10 Schmidt-Cassegrain + CCD.
703 Catalina Sky Survey.  Observers B. M. Africano, H. Groeller,
    G. J. Leonard.  Measurers B. M. Africano, E. J. Christensen, D. C. Fuls,
    A. R. Gibbs, A. D. Grauer, H. Groeller, J. A. Johnson, R. A. Kowalski,
    S. M. Larson, G. J. Leonard, R. L. Seaman, F. C. Shelly.  0.68-m Schmidt
    + 10K CCD.
A77 Observatoire Chante-Perdrix, Dauban.  Observer J. Nicolas.  0.41-m f/3.3
    reflector + CCD.
F51 Pan-STARRS 1, Haleakala.  Observers J. Bulger, T. Lowe, A. Schultz,
    M. Willman.  Measurers K. Chambers, S. Chastel, L. Denneau, H. Flewelling,
    M. Huber, E. Magnier, Y. Ramanjooloo, R. Wainscoat, C. Waters, R. Weryk.
    1.8-m Ritchey-Chretien + CCD.
F52 Pan-STARRS 2, Haleakala.  Observers J. Bulger, T. Dukes, T. Lowe,
    A. Schultz, M. Willman.  Measurers K. Chambers, S. Chastel, L. Denneau,
    H. Flewelling, M. Huber, E. Magnier, Y. Ramanjooloo, R. Wainscoat,
    C. Waters, R. Weryk.  1.8-m Ritchey-Chretien + CCD.
G40 Slooh.com Canary Islands Observatory.  Observer B. Lutkenhoner.  0.43-m
    f/6.8 Corrected Dall-Kirkham + CCD.
I81 Tarbatness Observatory, Portmahomack.  Observer D. Buczynski.  0.35-m
    Schmidt-Cassegrain + CCD + f/6 focal reducer.
K02 Eastwood Observatory, Leigh on Sea.  Observer P. Carson.  0.32-m
    reflector + CCD + f/5.4 focal reducer.
K77 EHB01 Observatory, Engelhardsberg.  Observer R. Fichtl.  0.40-m f/2.6
    reflector + CCD.
Q11 Shinshiro.  Observer T. Ikemura.  Measurer H. Sato.  0.35-m f/5 reflector
    + CCD.
Q38 Swan Hill.  Observer M. Mattiazzo.
Q62 iTelescope Observatory, Siding Spring.  Observer H. Sato.  0.51-m f/6.8
    astrograph + CCD + f/4.5 focal reducer.
Q68 Blue Mountains Observatory, Leura.  Observers P. Camilleri, H. Williams.
    Measurer P. Camilleri.  0.30-m f/3.0 reflector + CCD.
T05 ATLAS-HKO, Haleakala.  Observers L. Denneau, H. Flewelling, A. Heinze,
    H. Weiland, J. Tonry.  Measurers L. Denneau, H. Flewelling, A. Heinze,
    J. Tonry, A. Fitzsimmons, D. Young.  0.5-m f/2.0 Schmidt + CCD.
T08 ATLAS-MLO, Mauna Loa.  Observers L. Denneau, H. Flewelling, A. Heinze,
    H. Weiland, J. Tonry.  Measurers L. Denneau, H. Flewelling, A. Heinze,
    J. Tonry, A. Fitzsimmons, D. Young.  0.5-m f/2.0 Schmidt + CCD.
 
Orbital elements:
  64P/Swift-Gehrels
Epoch 1991 Mar. 5.0 TT = JDT 2448320.5
T 1991 Feb. 22.72502 TT                                 MPCW
q   1.3550806            (2000.0)            P               Q
n   0.10699923     Peri.   84.81741     +0.76503345     -0.63367045
a   4.3942249      Node   314.44187     +0.50856790     +0.70386288
e   0.6916224      Incl.    9.25525     +0.39507280     +0.32099658
P   9.21
>From 291 observations 1991 Jan. 7-2018 Aug. 11, mean residual 0".6.
     Nongravitational parameters A1 = -0.09, A2 = +0.0494.

  64P/Swift-Gehrels
Epoch 2000 Apr. 6.0 TT = JDT 2451640.5
T 2000 Apr. 21.80405 TT                                 MPCW
q   1.3388262            (2000.0)            P               Q
n   0.10736368     Peri.   92.41236     +0.77329845     -0.62286994
a   4.3842751      Node   306.14061     +0.50764042     +0.72020397
e   0.6946300      Incl.    8.43792     +0.37988250     +0.30551478
P   9.18
>From 291 observations 1991 Jan. 7-2018 Aug. 11, mean residual 0".6.
     Nongravitational parameters A1 = -0.09, A2 = +0.0494.

  64P/Swift-Gehrels
Epoch 2009 June 18.0 TT = JDT 2455000.5
T 2009 June 14.35183 TT                                 MPCW
q   1.3769804            (2000.0)            P               Q
n   0.10550545     Peri.   96.30254     +0.78774287     -0.60131312
a   4.4356042      Node   300.74391     +0.48555138     +0.73970752
e   0.6895619      Incl.    8.95145     +0.37907918     +0.30208495
P   9.34
>From 291 observations 1991 Jan. 7-2018 Aug. 11, mean residual 0".6.
     Nongravitational parameters A1 = -0.09, A2 = +0.0494.

  64P/Swift-Gehrels
Epoch 2018 Nov. 18.0 TT = JDT 2458440.5
T 2018 Nov. 3.89469 TT                                  MPCW
q   1.3931901            (2000.0)            P               Q
n   0.10470608     Peri.   97.15130     +0.78661189     -0.60257276
a   4.4581511      Node   299.99735     +0.48712092     +0.73969650
e   0.6874960      Incl.    8.94869     +0.37941396     +0.29959165
P   9.41
>From 291 observations 1991 Jan. 7-2018 Aug. 11, mean residual 0".6.
     Nongravitational parameters A1 = -0.09, A2 = +0.0494.

  64P/Swift-Gehrels
Epoch 2028 Apr. 19.0 TT = JDT 2461880.5
T 2028 Mar. 31.46566 TT                                 MPCW
q   1.3900001            (2000.0)            P               Q
n   0.10488456     Peri.   97.29557     +0.78752775     -0.60128900
a   4.4530921      Node   299.76308     +0.48599569     +0.74073413
e   0.6878573      Incl.    8.95322     +0.37895676     +0.29960722
P   9.40
>From 291 observations 1991 Jan. 7-2018 Aug. 11, mean residual 0".6.
     Nongravitational parameters A1 = -0.09, A2 = +0.0494.

  64P/Swift-Gehrels
Epoch 2018 Mar. 23.0 TT = JDT 2458200.5
T 2018 Nov. 3.90074 TT                                  MPCW
q   1.3932169            (2000.0)            P               Q
n   0.10476929     Peri.   97.14810     +0.78661297     -0.60257161
a   4.4563578      Node   300.00044     +0.48711674     +0.73969422
e   0.6873642      Incl.    8.94890     +0.37941708     +0.29959960
P   9.41
>From 291 observations 1991 Jan. 7-2018 Aug. 11, mean residual 0".6.
     Nongravitational parameters A1 = -0.09, A2 = +0.0494.

Ephemeris:
  64P/Swift-Gehrels
Date    TT    R. A. (2000) Decl.     Delta      r     Elong.  Phase   m1    m2
2018 07 14    23 33 08.8 +03 55 07   1.2315  1.9070   115.7    28.7  18.4  21.6
...
2018 07 29    23 49 40.2 +08 22 24   1.0225  1.8006   124.2    27.8  17.2  21.1
...
2018 08 06    23 57 34.5 +10 58 10   0.9228  1.7463   128.6    27.0  16.6  20.7
...
2018 08 12    00 02 59.0 +13 01 12   0.8538  1.7069   132.0    26.2  16.1  20.5
2018 08 13    00 03 50.2 +13 22 13   0.8428  1.7005   132.5    26.0  16.0  20.5
2018 08 14    00 04 40.6 +13 43 21   0.8320  1.6941   133.1    25.9  16.0  20.4
...
2018 08 20    00 09 24.8 +15 53 05   0.7700  1.6566   136.3    24.9  15.5  20.2
...
2018 08 28    00 14 53.5 +18 52 50   0.6959  1.6093   140.5    23.5  14.9  19.9
...
2018 09 12    00 22 22.9 +24 39 56   0.5835  1.5299   147.2    20.9  13.9  19.3

Gareth V. Williams           (C) Copyright 2018 MPC           M.P.E.C. 2018-P89



More information about the Iaude mailing list